SHIYAN 28B-01 (SY-28B 01

导读

试验二十八号B星01卫星(SHIYAN 28B-01,缩写SY-28B 01)由中国研制,于北京时间2025年7月3日17时35分,在西昌卫星发射中心通过长征四号丙运载火箭发射升空,卫星顺利进入预定轨道。该卫星由中国科学院微小卫星创新研究院抓总研制,主要任务是开展空间环境探测及相关技术试验,本次任务是长征系列运载火箭的第583次飞行。

基本信息
目录编号:
64753
目录名称:
SHIYAN 28B-01(SY-28B 01)
国际标识:
2025-145A
轨道中心:
EARTH
卫星名称:
SHIYAN 28B-01 (SY-28B 01
卫星全名:
SHIYAN 28B-01 (SY-28B 01
卫星状态:
在轨 (已飞行429 天)
发射日期:
2025-07-03 UTC
国别 :
中国 (CN)
星等 :
--
轨道信息
数据来源 国际轨道数据 AOE轨道数据
星历时间 2026-09-01T07:58:40+0800
4天前
查看轨道信息
2026-08-31T11:00:00+0800
5天前
查看轨道信息
半长轴 7171.818km 7171.826km
偏心率 0.00028 0.0002942
轨道倾角 10.998° 10.999°
近地点辐角 18.661° 355.909°
升交点赤经 192.395° 198.092°
平近点角 341.372° 175.115°
近地点 791.672km 791.579km
远地点 795.69km 795.799km
周期 100.740分钟 100.741分钟
每日圈数 14.294168 14.294145
详细信息
使用方式:
暂无
2D轨道图
3D轨道图
轨道高度分析图
轨道倾角分析图
轨道综合分析图
查看轨道综合分析图